Alturas, CA

1:24 PM PST on December 07, 2016 (GMT -0800)
Alturas Municipal

Weather History for KAAT - July, 2013

Change the Weather History Date:

Thursday, July 11, 2013

  Actual Average Record
Temperature  
Mean Temperature 65 °F 66 °F  
Max Temperature 89 °F 87 °F 107 °F (2002)
Min Temperature 40 °F 45 °F 31 °F (2016)
Degree Days  
Heating Degree Days 0 1  
Month to date heating degree days 0 21  
Since 1 June heating degree days 156 201  
Since 1 July heating degree days 0 21  
Cooling Degree Days 0 2  
Month to date cooling degree days 69 19  
Year to date cooling degree days 112 30  
Since 1 June cooling degree days 112 30  
Growing Degree Days 14 (Base 50)    
Moisture  
Dew Point 27 °F    
Average Humidity 36    
Maximum Humidity 65    
Minimum Humidity 7    
Precipitation  
Precipitation 0.00 in 0.01 in 0.15 in (1952)
Month to date precipitation T 0.09  
Year to date precipitation 4.43 8.53  
Sea Level Pressure  
Sea Level Pressure 29.91 in    
Wind  
Wind Speed 6 mph (WSW)    
Max Wind Speed 21 mph    
Max Gust Speed 26 mph    
Visibility 10 miles    
Events      
T = Trace of Precipitation, MM = Missing Value Source: NWS Daily Summary

Daily Weather History Graph

Daily Weather History Graph

Search for Another Location

Airport or City:

Trip Planner

Search our weather history database for the weather conditions in past years. The results will help you decide how hot, cold, wet, or windy it might be!

Date:

Astronomy

Jul. 11, 2013 Rise Set
Actual Time 5:38 AM PDT 8:36 PM PDT
Civil Twilight 5:05 AM PDT 9:09 PM PDT
Nautical Twilight 4:23 AM PDT 9:51 PM PDT
Astronomical Twilight 3:34 AM PDT 10:40 PM PDT
Moon 9:05 AM PDT (7/11) 10:16 PM PDT (7/11)
Length of Visible Light 16h 04m
Length of Day
14h 57m
Waxing Crescent, 11% of the Moon is Illuminated
Jul 11
Waxing Crescent
Jul 15
First Quarter
Jul 22
Full
Jul 29
Last Quarter
Aug 6
New

Hourly Weather History & Observations

Time (PDT) Temp. Dew Point Humidity Pressure Visibility Wind Dir Wind Speed Gust Speed Precip Events Conditions
12:55 AM 53.1 °F 36.0 °F 52% 29.95 in 10.0 mi Calm Calm - N/A   Clear
1:55 AM 51.1 °F 36.0 °F 56% 29.94 in 10.0 mi Calm Calm - N/A   Clear
2:55 AM 50.0 °F 35.1 °F 57% 29.93 in 10.0 mi Calm Calm - N/A   Clear
3:55 AM 45.0 °F 32.0 °F 60% 29.94 in 10.0 mi Calm Calm - N/A   Clear
4:55 AM 44.1 °F 34.0 °F 68% 29.94 in 10.0 mi Calm Calm - N/A   Clear
5:55 AM 41.0 °F 30.9 °F 67% 29.96 in 10.0 mi Calm Calm - N/A   Clear
6:55 AM 52.0 °F 34.0 °F 50% 29.94 in 10.0 mi Calm Calm - N/A   Clear
7:55 AM 62.1 °F 33.1 °F 34% 29.92 in 10.0 mi Calm Calm - N/A   Clear
8:55 AM 69.1 °F 30.0 °F 23% 29.91 in 10.0 mi Calm Calm - N/A   Clear
9:55 AM 75.0 °F 33.1 °F 22% 29.91 in 10.0 mi Calm Calm - N/A   Clear
10:55 AM - - N/A% 30.03 in 10.0 mi Calm Calm - N/A   Clear
11:55 AM 82.0 °F 30.0 °F 15% 29.88 in - North - - N/A   Clear
12:55 PM 84.9 °F 23.0 °F 10% 29.88 in 10.0 mi North - - N/A   Clear
1:55 PM 86.0 °F 19.9 °F 9% 29.87 in 10.0 mi West 16.1 mph 23.0 mph N/A   Clear
2:55 PM 86.0 °F 21.0 °F 9% 29.87 in 10.0 mi WSW 15.0 mph 24.2 mph N/A   Clear
3:55 PM 87.1 °F 18.0 °F 8% 29.86 in 10.0 mi WSW 16.1 mph 26.5 mph N/A   Clear
4:55 PM 86.0 °F 21.9 °F 10% 29.86 in 10.0 mi West 13.8 mph 26.5 mph N/A   Clear
5:55 PM 84.0 °F 18.0 °F 9% 29.86 in 10.0 mi West 15.0 mph 24.2 mph N/A   Clear
6:55 PM 82.0 °F 17.1 °F 9% 29.84 in 10.0 mi West 17.3 mph - N/A   Clear
7:55 PM 77.0 °F 21.9 °F 13% 29.83 in 10.0 mi WSW 13.8 mph 23.0 mph N/A   Clear
8:55 PM 68.0 °F 21.9 °F 17% 29.85 in 10.0 mi WSW 8.1 mph - N/A   Clear
9:55 PM 66.0 °F 24.1 °F 20% 29.87 in 10.0 mi West 6.9 mph - N/A   Clear
10:55 PM 63.0 °F 25.0 °F 24% 30.02 in 10.0 mi SE 5.8 mph - N/A   Clear
11:55 PM 60.1 °F 24.1 °F 25% 29.91 in 10.0 mi Calm Calm - N/A   Clear